Location: Unspecified
(41.1637°N, 0.0000°E)
Time: 12:02:30
(UTC+00:00)

XW-2A - Visible Passes

Search period start: 16 September 2019 00:00
Search period end: 26 September 2019 00:00
Orbit: 431 x 449 km, 97.3° (Epoch: 16 September)

Date Brightness Start Highest point End Pass type
(mag) Time Alt. Az. Time Alt. Az. Time Alt. Az.
16 Sep ? 20:16:03 47° NW 20:16:03 47° NW 20:18:42 10° NNW visible
17 Sep ? 19:37:51 34° NE 19:37:51 34° NE 19:40:31 10° N visible
17 Sep ? 21:11:18 10° WNW 21:11:18 10° WNW 21:11:19 10° WNW visible
18 Sep ? 18:59:37 12° ENE 18:59:40 12° ENE 19:01:07 10° NE visible
18 Sep ? 20:33:05 26° NW 20:33:05 26° NW 20:35:01 10° NNW visible
19 Sep ? 19:54:52 39° NNE 19:54:52 39° NNE 19:57:11 10° N visible
20 Sep ? 19:16:38 18° NE 19:16:38 18° NE 19:18:29 10° NNE visible
20 Sep ? 20:50:05 16° WNW 20:50:05 16° WNW 20:51:07 10° NW visible
21 Sep ? 20:11:52 30° NNW 20:11:52 30° NNW 20:13:42 10° NNW visible
22 Sep ? 19:33:38 23° NE 19:33:38 23° NE 19:35:24 10° N visible
23 Sep ? 20:28:53 19° NW 20:28:53 19° NW 20:30:03 10° NNW visible
24 Sep ? 19:50:38 23° N 19:50:38 23° N 19:52:06 10° N visible
25 Sep ? 19:12:25 13° NE 19:12:25 13° NE 19:13:11 10° NNE visible
25 Sep ? 20:45:52 12° NW 20:45:52 12° NW 20:46:12 10° NW visible
